Regional Weather Roundup
Issued by NWS

Home | Current Version | Previous Version | Text Only | Print | Product List | Glossary Off
Versions: 1 2 3 4 5 6 7 8 9 10 11 12 13 14 15 16 17 18 19 20 21 22 23 24 25 26 27

000
ASUS45 KCYS 230310
RWRWY

WYOMING REGIONAL WEATHER ROUNDUP
NATIONAL WEATHER SERVICE CHEYENNE WY
800 PM MST WED FEB 22 2017

NOTE:  "FAIR" INDICATES FEW OR NO CLOUDS BELOW 12,000 FEET
WITH NO SIGNIFICANT WEATHER AND/OR OBSTRUCTIONS TO VISIBILITY.

WYZ001-230400-
YELLOWSTONE NATIONAL PARK

CITY           SKY/WX    TMP DP  RH WIND       PRES   REMARKS
LK YELLOWSTONE   N/A      6   4  91 CALM      29.79F
W YELLOWSTONE  NOT AVBL

$$
WYZ002>013-054>058-071-098>099-230400-
NORTHERN WYOMING

CITY           SKY/WX    TMP DP  RH WIND       PRES   REMARKS
JACKSON        FAIR      19  16  86 N8        29.75F WCI   9
CODY           CLOUDY    29  26  89 NE10      29.85R WCI  20
GREYBULL       CLOUDY    35  26  69 NW14      29.82S WCI  26
WORLAND        FAIR      33  28  81 NE3       29.79F
SHERIDAN       LGT SNOW  33  31  92 VRB6      29.88S VSB 1   WCI  28
BUFFALO        FLURRIES  32  28  85 N7        29.85S WCI  26
GILLETTE       CLOUDY    31  27  85 NE10      29.85F WCI  22
HULETT         CLOUDY    32  28  86 MISG      29.88F
NEWCASTLE      FAIR      34  25  69 N6        29.82F WCI  29

$$
WYZ014>020-022>026-101>103-230400-
CENTRAL WYOMING

CITY           SKY/WX    TMP DP  RH WIND       PRES   REMARKS
BIG PINEY      CLOUDY    21  15  78 N12       29.73F WCI   9
PINEDALE       MOCLDY    21  16  79 NW9       29.73F WCI  11
DUBOIS         FAIR      19  10  68 SW8       29.74F WCI   9
LANDER         FAIR      34  18  52 NW6       29.71F WCI  29
RIVERTON       FAIR      34  17  50 N9        29.74F WCI  27
CASPER         CLOUDY    31  26  82 N14       29.79R WCI  21
DOUGLAS        CLOUDY    36  23  59 NW6       29.81R WCI  31

$$
WYZ021-027>030-104>119-230400-
SOUTHERN WYOMING

CITY           SKY/WX    TMP DP  RH WIND       PRES   REMARKS
EVANSTON       LGT SNOW  25  21  85 E6        29.72S VSB 1   WCI  18
FORT BRIDGER   LGT SNOW  26  26 100 E7        29.76F WCI  18
ROCK SPRINGS   CLOUDY    27  22  81 SE9       29.72F WCI  18
DIXON            N/A     30  27  89 CALM      29.73F
RAWLINS        LGT SNOW  27  25  92 E6        29.74F VSB 1   WCI  20
SARATOGA       LGT SNOW  27  27 100 W9        29.75F WCI  17
LARAMIE        LGT SNOW  26  24  92 NE7       29.77F VSB 1   WCI  18
CHEYENNE       CLOUDY    32  25  75 N12       29.79F WCI  23
TORRINGTON     CLOUDY    42  22  44 NE8       29.80F
PINE BLUFFS    CLOUDY    36  23  60 NW14      29.79F WCI  27

$$




USA.gov is the U.S. government's official web portal to all federal, state and local government web resources and services.